AAY397 KPGD-KCVG

Flight info

Callsign AAY397
Flight time 1h 59m
Altitude 36000
Route ROGAN LAL DOFFY CAMJO/N0451F390 Q99 HEPAR KERLY/N0445F380 VXV JAKIE7
Aircraft A20N/M-SDE2E3FGHIRWXY/LB1

Departure

Time 2026-04-27 22:50
Airport Punta Gorda Airport (KPGD)

Arrival

Time 2026-04-28 00:50
Airport Cincinnati Northern Kentucky International Airport (KCVG)
Time Latitude Longitude Altitude Speed Heading
2026-04-27 22:42 26.91297 -81.99467 36 ft 0 kts 240°
2026-04-27 22:46 26.91308 -81.99461 35 ft 2 kts 165°
2026-04-27 22:46 26.91320 -81.99467 34 ft 1 kts 151°
2026-04-27 22:47 26.91321 -81.99468 34 ft 0 kts 151°
2026-04-27 22:48 26.91299 -81.99428 32 ft 11 kts 93°
2026-04-27 22:48 26.91252 -81.99364 32 ft 11 kts 145°
2026-04-27 22:48 26.91192 -81.99321 35 ft 10 kts 148°
2026-04-27 22:48 26.91127 -81.99278 33 ft 12 kts 150°
2026-04-27 22:49 26.91072 -81.99243 32 ft 10 kts 143°
2026-04-27 22:49 26.91074 -81.99183 30 ft 12 kts 51°
2026-04-27 22:49 26.91095 -81.99168 30 ft 0 kts 28°
2026-04-27 22:49 26.91227 -81.99088 32 ft 56 kts 29°
2026-04-27 22:50 26.91799 -81.98725 39 ft 134 kts 27°
2026-04-27 22:50 26.92788 -81.98111 254 ft 181 kts 32°
2026-04-27 22:50 26.93956 -81.97379 865 ft 202 kts 29°
2026-04-27 22:50 26.95213 -81.96592 1823 ft 210 kts 26°
2026-04-27 22:51 26.96535 -81.95741 2439 ft 231 kts 21°
2026-04-27 22:51 26.98148 -81.95257 2909 ft 250 kts
2026-04-27 22:51 26.99894 -81.94930 3678 ft 257 kts
2026-04-27 22:51 27.01666 -81.94571 4514 ft 260 kts
2026-04-27 22:52 27.03454 -81.94185 5350 ft 262 kts
2026-04-27 22:52 27.05235 -81.93787 6155 ft 266 kts
2026-04-27 22:52 27.07071 -81.93370 6900 ft 272 kts
2026-04-27 22:52 27.08937 -81.92944 7669 ft 276 kts
2026-04-27 22:53 27.10831 -81.92514 8477 ft 279 kts
2026-04-27 22:53 27.12754 -81.92078 9306 ft 283 kts
2026-04-27 22:53 27.14696 -81.91639 10116 ft 286 kts
2026-04-27 22:53 27.16708 -81.91186 10536 ft 305 kts
2026-04-27 22:54 27.18860 -81.90705 10812 ft 325 kts
2026-04-27 22:54 27.21091 -81.90205 11259 ft 337 kts
2026-04-27 22:54 27.23417 -81.89745 11876 ft 341 kts
2026-04-27 22:54 27.25790 -81.89632 12556 ft 342 kts 356°
2026-04-27 22:55 27.28176 -81.89807 13270 ft 345 kts 353°
2026-04-27 22:55 27.30568 -81.90107 13978 ft 348 kts 351°
2026-04-27 22:55 27.32988 -81.90486 14607 ft 352 kts 349°
2026-04-27 22:55 27.35422 -81.90902 15247 ft 355 kts 349°
2026-04-27 22:56 27.37874 -81.91330 15891 ft 359 kts 349°
2026-04-27 22:56 27.40363 -81.91762 16530 ft 363 kts 349°
2026-04-27 22:56 27.42867 -81.92190 17155 ft 366 kts 349°
2026-04-27 22:56 27.45405 -81.92615 17777 ft 370 kts 349°
2026-04-27 22:57 27.47969 -81.93040 18384 ft 374 kts 349°
2026-04-27 22:57 27.50555 -81.93466 18903 ft 378 kts 349°
2026-04-27 22:57 27.53171 -81.93895 19422 ft 382 kts 349°
2026-04-27 22:57 27.55811 -81.94328 19948 ft 385 kts 349°
2026-04-27 22:58 27.58483 -81.94766 20484 ft 389 kts 349°
2026-04-27 22:58 27.61140 -81.95202 20993 ft 393 kts 349°
2026-04-27 22:58 27.63857 -81.95649 21509 ft 396 kts 349°
2026-04-27 22:58 27.66603 -81.96101 22013 ft 400 kts 349°
2026-04-27 22:59 27.69371 -81.96557 22524 ft 404 kts 349°
2026-04-27 22:59 27.72162 -81.97017 23007 ft 408 kts 349°
2026-04-27 22:59 27.74982 -81.97483 23469 ft 411 kts 349°
2026-04-27 22:59 27.77827 -81.97952 23894 ft 415 kts 349°
2026-04-27 23:00 27.83577 -81.98901 24755 ft 418 kts 349°
2026-04-27 23:00 27.86459 -81.99377 25187 ft 420 kts 349°
2026-04-27 23:00 27.89361 -81.99856 25610 ft 422 kts 349°
2026-04-27 23:01 27.92274 -82.00339 26015 ft 423 kts 349°
2026-04-27 23:01 27.95196 -82.00822 26417 ft 425 kts 349°
2026-04-27 23:01 27.98067 -82.01430 26791 ft 425 kts 343°
2026-04-27 23:01 28.00950 -82.02379 27187 ft 426 kts 340°
2026-04-27 23:02 28.03768 -82.03416 27557 ft 427 kts 339°
2026-04-27 23:02 28.06553 -82.04500 27917 ft 428 kts 338°
2026-04-27 23:02 28.09377 -82.05631 28258 ft 430 kts 338°
2026-04-27 23:02 28.12204 -82.06776 28598 ft 432 kts 338°
2026-04-27 23:03 28.15043 -82.07928 28936 ft 434 kts 338°
2026-04-27 23:03 28.17897 -82.09083 29274 ft 436 kts 338°
2026-04-27 23:03 28.20757 -82.10236 29600 ft 438 kts 338°
2026-04-27 23:03 28.23632 -82.11392 29934 ft 439 kts 338°
2026-04-27 23:04 28.26517 -82.12551 30240 ft 441 kts 338°
2026-04-27 23:04 28.29410 -82.13712 30570 ft 440 kts 338°
2026-04-27 23:04 28.32291 -82.14867 30973 ft 438 kts 338°
2026-04-27 23:04 28.35167 -82.16021 31372 ft 437 kts 338°
2026-04-27 23:05 28.38026 -82.17170 31742 ft 436 kts 338°
2026-04-27 23:05 28.40844 -82.18303 32102 ft 434 kts 338°
2026-04-27 23:05 28.43697 -82.19451 32465 ft 433 kts 338°
2026-04-27 23:05 28.46535 -82.20594 32817 ft 432 kts 338°
2026-04-27 23:06 28.49369 -82.21736 33156 ft 431 kts 338°
2026-04-27 23:06 28.52203 -82.22879 33501 ft 430 kts 338°
2026-04-27 23:06 28.55024 -82.24017 33831 ft 430 kts 338°
2026-04-27 23:06 28.57836 -82.25152 34145 ft 429 kts 338°
2026-04-27 23:07 28.60644 -82.26287 34476 ft 427 kts 338°
2026-04-27 23:07 28.63428 -82.27411 34845 ft 423 kts 337°
2026-04-27 23:07 28.66190 -82.28526 35246 ft 418 kts 337°
2026-04-27 23:07 28.68917 -82.29629 35612 ft 415 kts 337°
2026-04-27 23:08 28.71606 -82.30717 35946 ft 412 kts 337°
2026-04-27 23:08 28.74306 -82.31811 36103 ft 413 kts 337°
2026-04-27 23:08 28.79690 -82.33995 36122 ft 408 kts 337°
2026-04-27 23:09 28.85036 -82.36166 36120 ft 407 kts 337°
2026-04-27 23:09 28.90370 -82.38333 36120 ft 406 kts 337°
2026-04-27 23:10 28.95668 -82.40488 36115 ft 406 kts 337°
2026-04-27 23:10 29.00994 -82.42657 36111 ft 405 kts 337°
2026-04-27 23:11 29.06307 -82.44823 36112 ft 405 kts 337°
2026-04-27 23:11 29.11631 -82.46995 36126 ft 405 kts 337°
2026-04-27 23:12 29.16906 -82.49150 36128 ft 404 kts 337°
2026-04-27 23:12 29.22201 -82.51315 36129 ft 404 kts 337°
2026-04-27 23:13 29.27670 -82.52897 36127 ft 408 kts 347°
2026-04-27 23:13 29.33311 -82.53740 36127 ft 409 kts 349°
2026-04-27 23:14 29.38976 -82.54440 36130 ft 409 kts 349°
2026-04-27 23:14 29.44638 -82.55124 36138 ft 409 kts 349°
2026-04-27 23:15 29.50254 -82.55819 36141 ft 408 kts 349°
2026-04-27 23:15 29.55893 -82.56529 36152 ft 407 kts 349°
2026-04-27 23:16 29.61537 -82.57243 36153 ft 407 kts 349°
2026-04-27 23:16 29.67164 -82.57955 36155 ft 406 kts 349°
2026-04-27 23:17 29.72779 -82.58666 36157 ft 406 kts 349°
2026-04-27 23:17 29.78408 -82.59379 36158 ft 406 kts 349°
2026-04-27 23:18 29.83986 -82.60087 36158 ft 405 kts 349°
2026-04-27 23:18 29.89600 -82.60800 36160 ft 405 kts 349°
2026-04-27 23:19 29.95202 -82.61513 36162 ft 405 kts 349°
2026-04-27 23:19 30.00817 -82.62227 36164 ft 406 kts 349°
2026-04-27 23:20 30.06427 -82.62942 36165 ft 406 kts 349°
2026-04-27 23:20 30.12043 -82.63659 36167 ft 406 kts 349°
2026-04-27 23:21 30.17661 -82.64376 36165 ft 406 kts 349°
2026-04-27 23:21 30.23282 -82.65095 36167 ft 407 kts 349°
2026-04-27 23:22 30.28873 -82.65811 36165 ft 407 kts 349°
2026-04-27 23:22 30.34523 -82.66535 36165 ft 408 kts 349°
2026-04-27 23:23 30.40162 -82.67259 36164 ft 408 kts 349°
2026-04-27 23:23 30.45816 -82.67985 36165 ft 408 kts 349°
2026-04-27 23:24 30.51521 -82.68281 36164 ft 415 kts 360°
2026-04-27 23:24 30.57287 -82.67337 36169 ft 419 kts
2026-04-27 23:25 30.63008 -82.66127 36167 ft 420 kts
2026-04-27 23:25 30.68762 -82.64859 36169 ft 420 kts
2026-04-27 23:26 30.74512 -82.63610 36169 ft 420 kts
2026-04-27 23:26 30.80200 -82.62392 36167 ft 414 kts
2026-04-27 23:27 30.85855 -82.61180 36170 ft 412 kts
2026-04-27 23:27 30.90587 -82.60168 36170 ft 413 kts
2026-04-27 23:28 30.96206 -82.58964 36170 ft 413 kts
2026-04-27 23:28 31.01874 -82.57748 36170 ft 413 kts
2026-04-27 23:29 31.07536 -82.56531 36170 ft 414 kts
2026-04-27 23:29 31.13215 -82.55377 36181 ft 414 kts
2026-04-27 23:30 31.18908 -82.54279 36182 ft 414 kts
2026-04-27 23:30 31.24601 -82.53184 36185 ft 415 kts
2026-04-27 23:31 31.30261 -82.52086 36184 ft 415 kts
2026-04-27 23:31 31.35965 -82.50973 36184 ft 416 kts
2026-04-27 23:32 31.41691 -82.49854 36175 ft 416 kts
2026-04-27 23:32 31.47411 -82.48735 36175 ft 417 kts
2026-04-27 23:33 31.53106 -82.47620 36172 ft 417 kts
2026-04-27 23:33 31.58843 -82.46495 36176 ft 418 kts
2026-04-27 23:34 31.64581 -82.45369 36175 ft 418 kts
2026-04-27 23:34 31.70322 -82.44240 36178 ft 418 kts
2026-04-27 23:35 31.76068 -82.43109 36178 ft 419 kts
2026-04-27 23:35 31.81824 -82.41975 36177 ft 420 kts
2026-04-27 23:36 31.87586 -82.40838 36180 ft 420 kts
2026-04-27 23:36 31.93359 -82.39698 36179 ft 421 kts
2026-04-27 23:37 31.99139 -82.38555 36182 ft 421 kts
2026-04-27 23:37 32.04935 -82.37512 36184 ft 420 kts
2026-04-27 23:38 32.10717 -82.38009 36181 ft 416 kts 345°
2026-04-27 23:38 32.16231 -82.39947 36186 ft 416 kts 341°
2026-04-27 23:39 32.21749 -82.42053 36184 ft 416 kts 341°
2026-04-27 23:39 32.27266 -82.44165 36179 ft 416 kts 341°
2026-04-27 23:40 32.32787 -82.46280 36180 ft 416 kts 341°
2026-04-27 23:40 32.38298 -82.48393 36184 ft 417 kts 341°
2026-04-27 23:41 32.43819 -82.50512 36182 ft 417 kts 341°
2026-04-27 23:41 32.49331 -82.52631 36185 ft 417 kts 341°
2026-04-27 23:42 32.54847 -82.54753 36182 ft 417 kts 341°
2026-04-27 23:42 32.60353 -82.56875 36182 ft 414 kts 341°
2026-04-27 23:43 32.65788 -82.58972 36183 ft 413 kts 341°
2026-04-27 23:43 32.71264 -82.61087 36188 ft 413 kts 341°
2026-04-27 23:44 32.76732 -82.63202 36193 ft 413 kts 341°
2026-04-27 23:44 32.82206 -82.65323 36185 ft 413 kts 341°
2026-04-27 23:45 32.87679 -82.67445 36183 ft 413 kts 341°
2026-04-27 23:45 32.93148 -82.69569 36184 ft 413 kts 341°
2026-04-27 23:46 32.98619 -82.71696 36192 ft 413 kts 341°
2026-04-27 23:46 33.04095 -82.73828 36192 ft 413 kts 341°
2026-04-27 23:47 33.09563 -82.75960 36188 ft 414 kts 341°
2026-04-27 23:47 33.15033 -82.78095 36193 ft 414 kts 340°
2026-04-27 23:48 33.20482 -82.80225 36191 ft 414 kts 340°
2026-04-27 23:48 33.25955 -82.82367 36195 ft 414 kts 340°
2026-04-27 23:49 33.31427 -82.84511 36194 ft 414 kts 340°
2026-04-27 23:49 33.36902 -82.86660 36193 ft 414 kts 340°
2026-04-27 23:50 33.42376 -82.88811 36197 ft 414 kts 340°
2026-04-27 23:50 33.47846 -82.90963 36197 ft 414 kts 340°
2026-04-27 23:51 33.53316 -82.93118 36195 ft 413 kts 340°
2026-04-27 23:51 33.58783 -82.95275 36197 ft 413 kts 340°
2026-04-27 23:52 33.64248 -82.97434 36207 ft 413 kts 340°
2026-04-27 23:52 33.69677 -82.99581 36193 ft 413 kts 340°
2026-04-27 23:53 33.75136 -83.01743 36199 ft 413 kts 340°
2026-04-27 23:53 33.80589 -83.03906 36208 ft 413 kts 340°
2026-04-27 23:54 33.86047 -83.06074 36199 ft 413 kts 340°
2026-04-27 23:54 33.91505 -83.08244 36195 ft 413 kts 340°
2026-04-27 23:55 33.96953 -83.10414 36197 ft 413 kts 340°
2026-04-27 23:55 34.02404 -83.12588 36198 ft 412 kts 340°
2026-04-27 23:56 34.07858 -83.14766 36198 ft 412 kts 339°
2026-04-27 23:56 34.13268 -83.16929 36203 ft 412 kts 339°
2026-04-27 23:57 34.18711 -83.19108 36206 ft 412 kts 339°
2026-04-27 23:57 34.24154 -83.21290 36211 ft 412 kts 339°
2026-04-27 23:58 34.29568 -83.23464 36210 ft 411 kts 339°
2026-04-27 23:58 34.34998 -83.25647 36221 ft 411 kts 339°
2026-04-27 23:59 34.40431 -83.27834 36225 ft 411 kts 339°
2026-04-27 23:59 34.45860 -83.30023 36227 ft 411 kts 339°
2026-04-28 00:00 34.51300 -83.32219 36222 ft 412 kts 339°
2026-04-28 00:00 34.56747 -83.34421 36219 ft 413 kts 339°
2026-04-28 00:01 34.62170 -83.36616 36222 ft 413 kts 339°
2026-04-28 00:01 34.67622 -83.38827 36219 ft 413 kts 339°
2026-04-28 00:02 34.73078 -83.41041 36217 ft 413 kts 338°
2026-04-28 00:02 34.78532 -83.43258 36219 ft 413 kts 338°
2026-04-28 00:03 34.83985 -83.45477 36217 ft 413 kts 338°
2026-04-28 00:03 34.89445 -83.47703 36217 ft 413 kts 338°
2026-04-28 00:04 34.97636 -83.51048 36210 ft 413 kts 338°
2026-04-28 00:05 35.03094 -83.53282 36203 ft 414 kts 338°
2026-04-28 00:05 35.08556 -83.55518 36190 ft 414 kts 338°
2026-04-28 00:06 35.14026 -83.57762 36177 ft 415 kts 338°
2026-04-28 00:06 35.19477 -83.60002 36182 ft 415 kts 338°
2026-04-28 00:07 35.24986 -83.62269 36002 ft 421 kts 338°
2026-04-28 00:07 35.27772 -83.63418 35752 ft 424 kts 338°
2026-04-28 00:07 35.30581 -83.64575 35505 ft 426 kts 338°
2026-04-28 00:07 35.33396 -83.65736 35263 ft 427 kts 338°
2026-04-28 00:08 35.36216 -83.66900 35021 ft 428 kts 338°
2026-04-28 00:08 35.39047 -83.68069 34785 ft 430 kts 338°
2026-04-28 00:08 35.41848 -83.69227 34543 ft 432 kts 338°
2026-04-28 00:08 35.44703 -83.70408 34308 ft 433 kts 338°
2026-04-28 00:09 35.47564 -83.71592 34054 ft 435 kts 338°
2026-04-28 00:09 35.49732 -83.72490 33850 ft 435 kts 338°
2026-04-28 00:09 35.52600 -83.73678 33578 ft 436 kts 338°
2026-04-28 00:09 35.55494 -83.74879 33296 ft 437 kts 338°
2026-04-28 00:10 35.58381 -83.76077 33033 ft 438 kts 338°
2026-04-28 00:10 35.61272 -83.77278 32760 ft 439 kts 338°
2026-04-28 00:10 35.64170 -83.78483 32493 ft 439 kts 338°
2026-04-28 00:10 35.67071 -83.79690 32243 ft 440 kts 338°
2026-04-28 00:11 35.69971 -83.80898 31991 ft 441 kts 338°
2026-04-28 00:11 35.71899 -83.81701 31819 ft 441 kts 338°
2026-04-28 00:11 35.75791 -83.83324 31485 ft 441 kts 338°
2026-04-28 00:11 35.78693 -83.84534 31244 ft 439 kts 338°
2026-04-28 00:12 35.80612 -83.85336 31083 ft 438 kts 338°
2026-04-28 00:12 35.83492 -83.86539 30846 ft 437 kts 338°
2026-04-28 00:12 35.87314 -83.88087 30523 ft 436 kts 341°
2026-04-28 00:12 35.90286 -83.88820 30284 ft 438 kts 350°
2026-04-28 00:13 35.93346 -83.88898 30040 ft 441 kts
2026-04-28 00:13 35.95416 -83.88642 29854 ft 442 kts
2026-04-28 00:13 35.98459 -83.88136 29581 ft 441 kts
2026-04-28 00:13 36.01494 -83.87599 29303 ft 439 kts
2026-04-28 00:14 36.04474 -83.87070 29038 ft 437 kts
2026-04-28 00:14 36.07490 -83.86539 28774 ft 435 kts
2026-04-28 00:14 36.10480 -83.86016 28507 ft 433 kts
2026-04-28 00:14 36.13460 -83.85495 28245 ft 431 kts
2026-04-28 00:15 36.16425 -83.84978 27988 ft 430 kts
2026-04-28 00:15 36.19389 -83.84462 27730 ft 428 kts
2026-04-28 00:15 36.22332 -83.83949 27473 ft 426 kts
2026-04-28 00:15 36.25262 -83.83439 27218 ft 424 kts
2026-04-28 00:16 36.28184 -83.82929 26967 ft 423 kts
2026-04-28 00:16 36.31049 -83.82430 26722 ft 421 kts
2026-04-28 00:16 36.33979 -83.81918 26473 ft 419 kts
2026-04-28 00:16 36.36862 -83.81414 26231 ft 417 kts
2026-04-28 00:17 36.39698 -83.80918 25990 ft 416 kts
2026-04-28 00:17 36.42559 -83.80417 25758 ft 414 kts
2026-04-28 00:17 36.45403 -83.79919 25516 ft 412 kts
2026-04-28 00:17 36.48240 -83.79422 25287 ft 411 kts
2026-04-28 00:18 36.51066 -83.78926 25048 ft 409 kts
2026-04-28 00:18 36.53888 -83.78431 24813 ft 407 kts
2026-04-28 00:18 36.56684 -83.77940 24583 ft 406 kts
2026-04-28 00:18 36.59485 -83.77447 24359 ft 404 kts
2026-04-28 00:19 36.62263 -83.76958 24126 ft 403 kts
2026-04-28 00:19 36.65034 -83.76470 23891 ft 401 kts
2026-04-28 00:19 36.67792 -83.75984 23688 ft 399 kts
2026-04-28 00:19 36.70537 -83.75500 23432 ft 398 kts
2026-04-28 00:20 36.73275 -83.75018 23162 ft 396 kts
2026-04-28 00:20 36.75991 -83.74538 22903 ft 395 kts
2026-04-28 00:20 36.78708 -83.74058 22628 ft 393 kts
2026-04-28 00:20 36.81415 -83.73580 22370 ft 392 kts
2026-04-28 00:21 36.84110 -83.73103 22119 ft 390 kts
2026-04-28 00:21 36.86791 -83.72628 21862 ft 388 kts
2026-04-28 00:21 36.89464 -83.72154 21606 ft 387 kts
2026-04-28 00:21 36.92094 -83.71688 21360 ft 386 kts
2026-04-28 00:22 36.94756 -83.71215 21112 ft 385 kts
2026-04-28 00:22 36.97400 -83.70746 20863 ft 383 kts
2026-04-28 00:22 37.00041 -83.70276 20618 ft 382 kts
2026-04-28 00:22 37.02673 -83.69808 20372 ft 381 kts
2026-04-28 00:23 37.05295 -83.69342 20134 ft 380 kts
2026-04-28 00:23 37.07906 -83.68877 19893 ft 378 kts
2026-04-28 00:23 37.10470 -83.68420 19664 ft 377 kts
2026-04-28 00:23 37.13068 -83.67957 19428 ft 376 kts
2026-04-28 00:24 37.15652 -83.67495 19197 ft 374 kts
2026-04-28 00:24 37.18228 -83.67036 18971 ft 374 kts
2026-04-28 00:24 37.20806 -83.66575 18740 ft 373 kts
2026-04-28 00:24 37.23378 -83.66115 18518 ft 371 kts
2026-04-28 00:25 37.25935 -83.65657 18275 ft 370 kts
2026-04-28 00:25 37.28480 -83.65203 18016 ft 369 kts
2026-04-28 00:25 37.30990 -83.64883 17757 ft 365 kts 356°
2026-04-28 00:25 37.33508 -83.64957 17496 ft 359 kts 348°
2026-04-28 00:26 37.35949 -83.65486 17241 ft 353 kts 341°
2026-04-28 00:26 37.38316 -83.66277 16986 ft 351 kts 339°
2026-04-28 00:26 37.40663 -83.67125 16743 ft 351 kts 339°
2026-04-28 00:26 37.43015 -83.67982 16484 ft 350 kts 339°
2026-04-28 00:27 37.45350 -83.68832 16227 ft 350 kts 339°
2026-04-28 00:27 37.47694 -83.69683 15984 ft 349 kts 339°
2026-04-28 00:27 37.50006 -83.70521 15738 ft 349 kts 339°
2026-04-28 00:27 37.52338 -83.71366 15502 ft 349 kts 339°
2026-04-28 00:28 37.54671 -83.72210 15259 ft 348 kts 339°
2026-04-28 00:28 37.56998 -83.73053 15021 ft 348 kts 339°
2026-04-28 00:28 37.59322 -83.73896 14781 ft 347 kts 339°
2026-04-28 00:28 37.61646 -83.74738 14546 ft 347 kts 339°
2026-04-28 00:29 37.63972 -83.75582 14313 ft 347 kts 340°
2026-04-28 00:29 37.66292 -83.76424 14078 ft 347 kts 340°
2026-04-28 00:29 37.68618 -83.77269 13842 ft 347 kts 340°
2026-04-28 00:29 37.70942 -83.78114 13591 ft 347 kts 340°
2026-04-28 00:30 37.73268 -83.78959 13335 ft 347 kts 340°
2026-04-28 00:30 37.75585 -83.79802 13074 ft 346 kts 340°
2026-04-28 00:30 37.77899 -83.80644 12813 ft 345 kts 340°
2026-04-28 00:30 37.80180 -83.81475 12562 ft 344 kts 340°
2026-04-28 00:31 37.82476 -83.82312 12307 ft 344 kts 340°
2026-04-28 00:31 37.84775 -83.83150 12062 ft 344 kts 340°
2026-04-28 00:31 37.87075 -83.83990 11934 ft 343 kts 340°
2026-04-28 00:31 37.89368 -83.84828 11920 ft 343 kts 340°
2026-04-28 00:32 37.91667 -83.85668 11915 ft 343 kts 340°
2026-04-28 00:32 37.93960 -83.86507 11914 ft 343 kts 340°
2026-04-28 00:32 37.96254 -83.87347 11913 ft 343 kts 340°
2026-04-28 00:32 37.98541 -83.88184 11911 ft 343 kts 340°
2026-04-28 00:33 38.00839 -83.89027 11906 ft 343 kts 339°
2026-04-28 00:33 38.03129 -83.89866 11908 ft 343 kts 339°
2026-04-28 00:33 38.05420 -83.90707 11908 ft 343 kts 339°
2026-04-28 00:33 38.07683 -83.91539 11907 ft 343 kts 339°
2026-04-28 00:34 38.09965 -83.92376 11907 ft 335 kts 339°
2026-04-28 00:34 38.12153 -83.93227 11912 ft 323 kts 335°
2026-04-28 00:34 38.14163 -83.94409 11910 ft 316 kts 327°
2026-04-28 00:34 38.16090 -83.95756 11911 ft 315 kts 326°
2026-04-28 00:35 38.17997 -83.97130 11911 ft 315 kts 326°
2026-04-28 00:35 38.19907 -83.98510 11914 ft 315 kts 326°
2026-04-28 00:35 38.21793 -83.99871 11915 ft 315 kts 326°
2026-04-28 00:35 38.23700 -84.01244 11913 ft 315 kts 326°
2026-04-28 00:36 38.25607 -84.02617 11914 ft 315 kts 326°
2026-04-28 00:36 38.27515 -84.03989 11913 ft 315 kts 326°
2026-04-28 00:36 38.29421 -84.05362 11913 ft 315 kts 326°
2026-04-28 00:36 38.31327 -84.06733 11914 ft 314 kts 326°
2026-04-28 00:37 38.33230 -84.08104 11912 ft 315 kts 325°
2026-04-28 00:37 38.35142 -84.09482 11912 ft 315 kts 326°
2026-04-28 00:37 38.37051 -84.10858 11914 ft 315 kts 325°
2026-04-28 00:37 38.38956 -84.12233 11918 ft 315 kts 325°
2026-04-28 00:38 38.40861 -84.13608 11913 ft 315 kts 325°
2026-04-28 00:38 38.42742 -84.14968 11909 ft 315 kts 325°
2026-04-28 00:38 38.44648 -84.16346 11764 ft 314 kts 325°
2026-04-28 00:38 38.46552 -84.17724 11518 ft 315 kts 325°
2026-04-28 00:39 38.48458 -84.19104 11281 ft 315 kts 325°
2026-04-28 00:39 38.50365 -84.20485 11038 ft 314 kts 325°
2026-04-28 00:39 38.52273 -84.21868 10801 ft 315 kts 325°
2026-04-28 00:39 38.54177 -84.23250 10565 ft 314 kts 325°
2026-04-28 00:40 38.56077 -84.24628 10330 ft 314 kts 325°
2026-04-28 00:40 38.57979 -84.26009 10100 ft 315 kts 325°
2026-04-28 00:40 38.59885 -84.27394 9867 ft 315 kts 325°
2026-04-28 00:40 38.61766 -84.28758 9608 ft 306 kts 324°
2026-04-28 00:41 38.63586 -84.30077 9392 ft 298 kts 324°
2026-04-28 00:41 38.65515 -84.31095 9261 ft 305 kts 341°
2026-04-28 00:41 38.67624 -84.31583 9142 ft 309 kts 347°
2026-04-28 00:41 38.69764 -84.31940 8911 ft 311 kts 348°
2026-04-28 00:42 38.71910 -84.32281 8659 ft 311 kts 349°
2026-04-28 00:42 38.74054 -84.32627 8406 ft 310 kts 348°
2026-04-28 00:42 38.76173 -84.32976 8179 ft 310 kts 349°
2026-04-28 00:42 38.78315 -84.33333 7964 ft 310 kts 349°
2026-04-28 00:43 38.80405 -84.33680 7911 ft 295 kts 349°
2026-04-28 00:43 38.82386 -84.34012 7892 ft 279 kts 347°
2026-04-28 00:43 38.84204 -84.34639 7746 ft 265 kts 333°
2026-04-28 00:43 38.85899 -84.35586 7284 ft 268 kts 329°
2026-04-28 00:44 38.87601 -84.36631 6820 ft 273 kts 329°
2026-04-28 00:44 38.89304 -84.37681 6611 ft 268 kts 329°
2026-04-28 00:44 38.90955 -84.38694 6315 ft 267 kts 329°
2026-04-28 00:44 38.92649 -84.39731 5940 ft 268 kts 330°
2026-04-28 00:45 38.94331 -84.40757 5614 ft 268 kts 330°
2026-04-28 00:45 38.96017 -84.41786 5313 ft 267 kts 330°
2026-04-28 00:45 38.97695 -84.42808 4939 ft 267 kts 331°
2026-04-28 00:45 38.99371 -84.43829 4616 ft 266 kts 332°
2026-04-28 00:46 39.01041 -84.44844 4288 ft 264 kts 331°
2026-04-28 00:46 39.02684 -84.45855 4080 ft 259 kts 328°
2026-04-28 00:46 39.04031 -84.47240 3955 ft 236 kts 297°
2026-04-28 00:46 39.04559 -84.49061 3849 ft 206 kts 268°
2026-04-28 00:47 39.04643 -84.50827 3614 ft 196 kts 261°
2026-04-28 00:47 39.04644 -84.52530 3484 ft 185 kts 259°
2026-04-28 00:47 39.04638 -84.54134 3421 ft 172 kts 258°
2026-04-28 00:47 39.04620 -84.55364 3305 ft 157 kts 255°
2026-04-28 00:48 39.04607 -84.56695 3090 ft 144 kts 258°
2026-04-28 00:48 39.04621 -84.57960 2761 ft 140 kts 257°
2026-04-28 00:48 39.04619 -84.59211 2381 ft 140 kts 257°
2026-04-28 00:48 39.04614 -84.60484 2000 ft 144 kts 258°
2026-04-28 00:49 39.04615 -84.61782 1567 ft 142 kts 266°
2026-04-28 00:49 39.04619 -84.63019 1342 ft 135 kts 272°
2026-04-28 00:49 39.04622 -84.64202 1118 ft 131 kts 275°
2026-04-28 00:49 39.04625 -84.65362 920 ft 127 kts 276°
2026-04-28 00:50 39.04638 -84.66400 883 ft 97 kts 270°
2026-04-28 00:50 39.04637 -84.66882 883 ft 10 kts 272°
2026-04-28 00:50 39.04637 -84.66982 883 ft 17 kts 269°
2026-04-28 00:50 39.04697 -84.67084 881 ft 13 kts
2026-04-28 00:51 39.04706 -84.67084 881 ft 0 kts
2026-04-28 00:52 39.04747 -84.67082 881 ft 15 kts
2026-04-28 00:52 39.04815 -84.66979 881 ft 22 kts 91°
2026-04-28 00:52 39.04814 -84.66858 883 ft 6 kts 90°
2026-04-28 00:53 39.04818 -84.66770 884 ft 9 kts 77°
2026-04-28 00:53 39.04814 -84.66670 884 ft 20 kts 90°
2026-04-28 00:53 39.04814 -84.66426 880 ft 30 kts 90°
2026-04-28 00:53 39.04814 -84.66285 881 ft 16 kts 90°
2026-04-28 00:54 39.04814 -84.66081 878 ft 21 kts 92°
2026-04-28 00:54 39.04826 -84.66027 878 ft 9 kts 36°
2026-04-28 00:54 39.04865 -84.65973 879 ft 6 kts 91°
2026-04-28 00:54 39.04881 -84.65835 881 ft 16 kts 64°
2026-04-28 00:55 39.04933 -84.65791 882 ft 5 kts 38°
2026-04-28 00:55 39.04976 -84.65765 883 ft 0 kts 20°